| time (UTC) | temp C | wind direction | speed KPH | gust KPH | rain 1hr cm | rain 24hr cm | rain mn cm | humidity % | barometer mb |
| 20260503203205 | 15 | 247 | 6.4 | 11.3 | 0.00 | 0.00 | 0.00 | 79 | 1013.1 |
| 20260503202705 | 15 | 261 | 6.4 | 14.5 | 0.00 | 0.00 | 0.00 | 78 | 1013.2 |
| 20260503202205 | 15 | 238 | 8.0 | 14.5 | 0.00 | 0.00 | 0.00 | 78 | 1013.2 |
| 20260503201705 | 15 | 238 | 8.0 | 14.5 | 0.00 | 0.00 | 0.00 | 78 | 1013.1 |
| 20260503201205 | 15 | 215 | 8.0 | 14.5 | 0.00 | 0.00 | 0.00 | 78 | 1013.0 |
| 20260503200705 | 15 | 238 | 8.0 | 14.5 | 0.00 | 0.00 | 0.00 | 78 | 1013.0 |
| 20260503200205 | 15 | 227 | 6.4 | 11.3 | 0.00 | 0.00 | 0.00 | 77 | 1013.0 |
| 20260503195705 | 15 | 259 | 6.4 | 12.9 | 0.00 | 0.00 | 0.00 | 77 | 1012.9 |
| 20260503195205 | 15 | 234 | 8.0 | 14.5 | 0.00 | 0.00 | 0.00 | 76 | 1012.8 |
| 20260503194704 | 16 | 241 | 8.0 | 14.5 | 0.00 | 0.00 | 0.00 | 76 | 1012.8 |
| 20260503194205 | 16 | 225 | 8.0 | 16.1 | 0.00 | 0.00 | 0.00 | 75 | 1012.8 |
| 20260503193704 | 16 | 254 | 8.0 | 16.1 | 0.00 | 0.00 | 0.00 | 75 | 1012.6 |
| 20260503193205 | 16 | 249 | 8.0 | 16.1 | 0.00 | 0.00 | 0.00 | 74 | 1012.5 |
| 20260503192704 | 16 | 240 | 8.0 | 17.7 | 0.00 | 0.00 | 0.00 | 74 | 1012.5 |
| 20260503192205 | 16 | 242 | 8.0 | 17.7 | 0.00 | 0.00 | 0.00 | 73 | 1012.4 |
| 20260503191704 | 16 | 243 | 9.7 | 17.7 | 0.00 | 0.00 | 0.00 | 72 | 1012.5 |
| 20260503191204 | 16 | 238 | 9.7 | 19.3 | 0.00 | 0.00 | 0.00 | 71 | 1012.4 |
| 20260503190704 | 16 | 244 | 9.7 | 19.3 | 0.00 | 0.00 | 0.00 | 70 | 1012.4 |
| 20260503190205 | 17 | 241 | 9.7 | 19.3 | 0.00 | 0.00 | 0.00 | 69 | 1012.2 |
| 20260503185705 | 17 | 232 | 11.3 | 19.3 | 0.00 | 0.00 | 0.00 | 69 | 1012.2 |
| 20260503185204 | 17 | 231 | 11.3 | 19.3 | 0.00 | 0.00 | 0.00 | 68 | 1012.2 |
| 20260503184205 | 17 | 254 | 12.9 | 20.9 | 0.00 | 0.00 | 0.00 | 67 | 1012.2 |
| 20260503182204 | 18 | 244 | 12.9 | 24.1 | 0.00 | 0.00 | 0.00 | 64 | 1012.2 |
| 20260503181205 | 18 | 255 | 14.5 | 29.0 | 0.00 | 0.00 | 0.00 | 62 | 1012.2 |
| 20260503180705 | 18 | 251 | 16.1 | 29.0 | 0.00 | 0.00 | 0.00 | 61 | 1012.1 |
| 20260503180205 | 18 | 226 | 16.1 | 27.4 | 0.00 | 0.00 | 0.00 | 60 | 1012.0 |
| 20260503175705 | 19 | 238 | 14.5 | 29.0 | 0.00 | 0.00 | 0.00 | 60 | 1012.0 |
| 20260503175205 | 19 | 215 | 17.7 | 29.0 | 0.00 | 0.00 | 0.00 | 61 | 1012.0 |
| 20260503174704 | 19 | 244 | 16.1 | 25.7 | 0.00 | 0.00 | 0.00 | 60 | 1012.0 |
| 20260503174205 | 19 | 237 | 14.5 | 27.4 | 0.00 | 0.00 | 0.00 | 61 | 1012.0 |
| 20260503173704 | 19 | 241 | 14.5 | 27.4 | 0.00 | 0.00 | 0.00 | 60 | 1012.2 |
| 20260503173205 | 20 | 217 | 16.1 | 27.4 | 0.00 | 0.00 | 0.00 | 59 | 1012.2 |
| 20260503172205 | 20 | 238 | 14.5 | 29.0 | 0.00 | 0.00 | 0.00 | 57 | 1012.1 |
| 20260503171705 | 21 | 223 | 14.5 | 29.0 | 0.00 | 0.00 | 0.00 | 57 | 1012.1 |
| 20260503171205 | 20 | 231 | 16.1 | 27.4 | 0.00 | 0.00 | 0.00 | 57 | 1012.1 |
| 20260503170705 | 20 | 242 | 16.1 | 29.0 | 0.00 | 0.00 | 0.00 | 57 | 1012.1 |
| 20260503160205 | 21 | 236 | 16.1 | 30.6 | 0.00 | 0.00 | 0.00 | 53 | 1012.1 |
| 20260503150220 | 22 | 290 | 16.1 | 29.0 | 0.00 | 0.00 | 0.00 | 49 | 1012.5 |
| 20260503140205 | 22 | 255 | 16.1 | 30.6 | 0.00 | 0.00 | 0.00 | 51 | 1012.9 |
| 20260503131205 | 21 | 281 | 14.5 | 27.4 | 0.00 | 0.00 | 0.00 | 55 | 1013.1 |
| 20260503130705 | 21 | 263 | 14.5 | 27.4 | 0.00 | 0.00 | 0.00 | 55 | 1013.1 |
| 20260503130205 | 22 | 257 | 12.9 | 27.4 | 0.00 | 0.00 | 0.00 | 57 | 1013.3 |
| 20260503110704 | 21 | 222 | 9.7 | 17.7 | 0.00 | 0.00 | 0.00 | 56 | 1014.2 |
| 20260503110204 | 21 | 207 | 6.4 | 17.7 | 0.00 | 0.00 | 0.00 | 59 | 1014.2 |
| 20260503100205 | 19 | 197 | 8.0 | 16.1 | 0.00 | 0.00 | 0.00 | 68 | 1014.2 |
| 20260503090205 | 18 | 259 | 6.4 | 12.9 | 0.00 | 0.00 | 0.00 | 76 | 1014.2 |
| 20260503081204 | 17 | 300 | 1.6 | 6.4 | 0.00 | 0.00 | 0.00 | 84 | 1014.1 |
| 20260503080704 | 17 | 34 | 1.6 | 6.4 | 0.00 | 0.00 | 0.00 | 85 | 1014.0 |
| 20260503080205 | 17 | 346 | 3.2 | 6.4 | 0.00 | 0.00 | 0.00 | 86 | 1014.0 |
| 20260503072704 | 15 | 89 | 1.6 | 6.4 | 0.00 | 0.00 | 0.00 | 93 | 1013.8 |
| 20260503072205 | 15 | 208 | 1.6 | 6.4 | 0.00 | 0.00 | 0.00 | 93 | 1013.8 |
| 20260503071704 | 15 | 269 | 3.2 | 8.0 | 0.00 | 0.00 | 0.00 | 93 | 1013.8 |
| 20260503071204 | 15 | 309 | 3.2 | 8.0 | 0.00 | 0.00 | 0.00 | 93 | 1013.8 |
| 20260503070705 | 15 | 298 | 3.2 | 8.0 | 0.00 | 0.00 | 0.00 | 94 | 1013.8 |
| 20260503070205 | 15 | 314 | 3.2 | 8.0 | 0.00 | 0.00 | 0.00 | 94 | 1013.9 |
| 20260503060205 | 15 | 307 | 3.2 | 6.4 | 0.00 | 0.00 | 0.00 | 94 | 1013.6 |
| 20260503054205 | 15 | 281 | 3.2 | 6.4 | 0.00 | 0.00 | 0.00 | 93 | 1013.5 |
| 20260503053705 | 15 | 306 | 3.2 | 6.4 | 0.00 | 0.00 | 0.00 | 93 | 1013.5 |
| 20260503053204 | 15 | 306 | 3.2 | 6.4 | 0.00 | 0.00 | 0.00 | 93 | 1013.5 |
| 20260503052705 | 15 | 232 | 3.2 | 6.4 | 0.00 | 0.00 | 0.00 | 93 | 1013.5 |
| 20260503052205 | 15 | 258 | 1.6 | 4.8 | 0.00 | 0.00 | 0.00 | 93 | 1013.5 |
| 20260503051704 | 15 | 253 | 1.6 | 3.2 | 0.00 | 0.00 | 0.00 | 93 | 1013.4 |
| 20260503051205 | 15 | 229 | 1.6 | 4.8 | 0.00 | 0.00 | 0.00 | 93 | 1013.3 |
| 20260503050705 | 15 | 229 | 1.6 | 4.8 | 0.00 | 0.00 | 0.00 | 93 | 1013.3 |
| 20260503050205 | 15 | 229 | 1.6 | 4.8 | 0.00 | 0.00 | 0.00 | 93 | 1013.2 |
| 20260503045705 | 15 | 225 | 1.6 | 8.0 | 0.00 | 0.00 | 0.00 | 93 | 1013.2 |
| 20260503045205 | 15 | 225 | 1.6 | 8.0 | 0.00 | 0.00 | 0.00 | 92 | 1013.2 |
| 20260503044704 | 15 | 228 | 1.6 | 4.8 | 0.00 | 0.00 | 0.00 | 92 | 1013.3 |
| 20260503044204 | 15 | 194 | 1.6 | 4.8 | 0.00 | 0.00 | 0.00 | 92 | 1013.3 |
| 20260503043704 | 15 | 194 | 1.6 | 4.8 | 0.00 | 0.00 | 0.00 | 92 | 1013.2 |
| 20260503043204 | 15 | 221 | 1.6 | 6.4 | 0.00 | 0.00 | 0.00 | 92 | 1013.2 |
| 20260503042704 | 15 | 221 | 1.6 | 6.4 | 0.00 | 0.00 | 0.00 | 92 | 1013.3 |
| 20260503042205 | 15 | 221 | 1.6 | 6.4 | 0.00 | 0.00 | 0.00 | 92 | 1013.3 |
| 20260503041705 | 15 | 221 | 1.6 | 3.2 | 0.00 | 0.00 | 0.00 | 92 | 1013.3 |
| 20260503041205 | 15 | 202 | 0.0 | 3.2 | 0.00 | 0.00 | 0.00 | 92 | 1013.3 |
| 20260503040705 | 15 | 206 | 0.0 | 0.0 | 0.00 | 0.00 | 0.00 | 92 | 1013.3 |
| 20260503040205 | 15 | 313 | 0.0 | 0.0 | 0.00 | 0.00 | 0.00 | 92 | 1013.3 |
| 20260503035705 | 15 | 313 | 0.0 | 0.0 | 0.00 | 0.00 | 0.00 | 92 | 1013.4 |
| 20260503035205 | 15 | 313 | 0.0 | 0.0 | 0.00 | 0.00 | 0.00 | 92 | 1013.5 |
| 20260503034704 | 15 | 313 | 0.0 | 0.0 | 0.00 | 0.00 | 0.00 | 92 | 1013.6 |
| 20260503034205 | 15 | 313 | 0.0 | 0.0 | 0.00 | 0.00 | 0.00 | 91 | 1013.5 |
| 20260503033205 | 15 | 313 | 0.0 | 0.0 | 0.00 | 0.00 | 0.00 | 91 | 1013.3 |
| 20260503032704 | 15 | 313 | 0.0 | 0.0 | 0.00 | 0.00 | 0.00 | 91 | 1013.4 |
| 20260503032204 | 15 | 313 | 0.0 | 0.0 | 0.00 | 0.00 | 0.00 | 91 | 1013.5 |
| 20260503031705 | 15 | 313 | 0.0 | 0.0 | 0.00 | 0.00 | 0.00 | 91 | 1013.4 |
| 20260503031221 | 15 | 313 | 0.0 | 0.0 | 0.00 | 0.00 | 0.00 | 91 | 1013.4 |
| 20260503030704 | 15 | 313 | 0.0 | 0.0 | 0.00 | 0.00 | 0.00 | 91 | 1013.4 |
| 20260503030205 | 15 | 313 | 0.0 | 3.2 | 0.00 | 0.00 | 0.00 | 91 | 1013.5 |
| 20260503025705 | 15 | 313 | 0.0 | 4.8 | 0.00 | 0.00 | 0.00 | 91 | 1013.6 |
| 20260503025205 | 15 | 313 | 1.6 | 4.8 | 0.00 | 0.00 | 0.00 | 90 | 1013.5 |
| 20260503024704 | 15 | 313 | 1.6 | 4.8 | 0.00 | 0.00 | 0.00 | 90 | 1013.7 |
| 20260503024205 | 15 | 313 | 1.6 | 3.2 | 0.00 | 0.00 | 0.00 | 90 | 1013.5 |
| 20260503023705 | 15 | 201 | 1.6 | 3.2 | 0.00 | 0.00 | 0.00 | 90 | 1013.6 |
| 20260503022704 | 15 | 201 | 1.6 | 4.8 | 0.00 | 0.00 | 0.00 | 90 | 1013.7 |
| 20260503021705 | 15 | 201 | 3.2 | 3.2 | 0.00 | 0.00 | 0.00 | 90 | 1013.6 |
| 20260503021205 | 15 | 201 | 1.6 | 4.8 | 0.00 | 0.00 | 0.00 | 89 | 1013.6 |
| 20260503020704 | 15 | 201 | 0.0 | 4.8 | 0.00 | 0.00 | 0.00 | 89 | 1013.7 |
| 20260503020205 | 15 | 201 | 1.6 | 4.8 | 0.00 | 0.00 | 0.00 | 89 | 1013.7 |
| 20260503015705 | 15 | 201 | 3.2 | 4.8 | 0.00 | 0.00 | 0.00 | 89 | 1013.8 |
| 20260503015205 | 15 | 201 | 3.2 | 4.8 | 0.00 | 0.00 | 0.00 | 89 | 1013.8 |
| 20260503014705 | 15 | 201 | 3.2 | 4.8 | 0.00 | 0.00 | 0.00 | 89 | 1013.8 |
| 20260503014205 | 15 | 201 | 3.2 | 6.4 | 0.00 | 0.00 | 0.00 | 88 | 1013.8 |
| 20260503013704 | 15 | 201 | 3.2 | 6.4 | 0.00 | 0.00 | 0.00 | 89 | 1014.0 |
| 20260503013205 | 15 | 201 | 4.8 | 6.4 | 0.00 | 0.00 | 0.00 | 88 | 1014.0 |
| 20260503012705 | 15 | 205 | 4.8 | 6.4 | 0.00 | 0.00 | 0.00 | 88 | 1014.0 |
| 20260503012205 | 15 | 208 | 4.8 | 6.4 | 0.00 | 0.00 | 0.00 | 88 | 1014.1 |
| 20260503011705 | 15 | 217 | 3.2 | 6.4 | 0.00 | 0.00 | 0.00 | 88 | 1014.2 |
| 20260503011205 | 15 | 217 | 3.2 | 6.4 | 0.00 | 0.00 | 0.00 | 87 | 1014.3 |
| 20260503010705 | 15 | 217 | 3.2 | 6.4 | 0.00 | 0.00 | 0.00 | 87 | 1014.4 |
| 20260503010204 | 15 | 217 | 3.2 | 6.4 | 0.00 | 0.00 | 0.00 | 87 | 1014.5 |
| 20260503005705 | 15 | 217 | 4.8 | 6.4 | 0.00 | 0.00 | 0.00 | 87 | 1014.5 |
| 20260503005204 | 15 | 213 | 4.8 | 6.4 | 0.00 | 0.00 | 0.00 | 87 | 1014.6 |
| 20260503004705 | 15 | 220 | 4.8 | 6.4 | 0.00 | 0.00 | 0.00 | 86 | 1014.6 |
| 20260503004204 | 15 | 230 | 3.2 | 6.4 | 0.00 | 0.00 | 0.00 | 86 | 1014.6 |
| 20260503003704 | 15 | 221 | 3.2 | 6.4 | 0.00 | 0.00 | 0.00 | 86 | 1014.6 |
| 20260503003205 | 15 | 218 | 3.2 | 6.4 | 0.00 | 0.00 | 0.00 | 86 | 1014.7 |
| 20260503002704 | 15 | 237 | 4.8 | 6.4 | 0.00 | 0.00 | 0.00 | 86 | 1014.8 |
| 20260503002205 | 15 | 229 | 4.8 | 8.0 | 0.00 | 0.00 | 0.00 | 86 | 1014.8 |
| 20260503001705 | 15 | 228 | 3.2 | 8.0 | 0.00 | 0.00 | 0.00 | 86 | 1014.8 |
| 20260503001205 | 15 | 220 | 4.8 | 8.0 | 0.00 | 0.00 | 0.00 | 86 | 1015.0 |
| 20260503000720 | 15 | 217 | 4.8 | 6.4 | 0.00 | 0.00 | 0.00 | 86 | 1014.9 |
| 20260503000205 | 15 | 219 | 4.8 | 6.4 | 0.00 | 0.00 | 0.00 | 86 | 1014.9 |
| 20260502235705 | 15 | 216 | 4.8 | 6.4 | 0.00 | 0.00 | 0.00 | 86 | 1015.0 |
| 20260502234705 | 15 | 219 | 4.8 | 6.4 | 0.00 | 0.00 | 0.00 | 86 | 1015.0 |
| 20260502233704 | 15 | 244 | 4.8 | 8.0 | 0.00 | 0.00 | 0.00 | 86 | 1015.1 |
| 20260502233205 | 15 | 241 | 4.8 | 8.0 | 0.00 | 0.00 | 0.00 | 85 | 1015.0 |
| 20260502232705 | 15 | 243 | 4.8 | 8.0 | 0.00 | 0.00 | 0.00 | 85 | 1015.0 |
| 20260502232205 | 15 | 245 | 4.8 | 8.0 | 0.00 | 0.00 | 0.00 | 84 | 1015.1 |
| 20260502231705 | 15 | 250 | 4.8 | 8.0 | 0.00 | 0.00 | 0.00 | 84 | 1015.1 |
| 20260502231205 | 15 | 250 | 4.8 | 8.0 | 0.00 | 0.00 | 0.00 | 84 | 1015.1 |
| 20260502230704 | 15 | 238 | 4.8 | 8.0 | 0.00 | 0.00 | 0.00 | 84 | 1015.0 |
| 20260502230204 | 15 | 243 | 4.8 | 6.4 | 0.00 | 0.00 | 0.00 | 83 | 1015.1 |
| 20260502225704 | 15 | 237 | 4.8 | 6.4 | 0.00 | 0.00 | 0.00 | 83 | 1015.1 |
| 20260502225205 | 15 | 238 | 4.8 | 8.0 | 0.00 | 0.00 | 0.00 | 83 | 1015.1 |
| 20260502224704 | 15 | 245 | 4.8 | 8.0 | 0.00 | 0.00 | 0.00 | 82 | 1015.1 |
| 20260502224204 | 15 | 252 | 4.8 | 9.7 | 0.00 | 0.00 | 0.00 | 82 | 1015.1 |
| 20260502223705 | 15 | 248 | 4.8 | 11.3 | 0.00 | 0.00 | 0.00 | 81 | 1015.0 |
| 20260502223205 | 16 | 252 | 4.8 | 11.3 | 0.00 | 0.00 | 0.00 | 81 | 1015.1 |
| 20260502222705 | 16 | 270 | 6.4 | 11.3 | 0.00 | 0.00 | 0.00 | 81 | 1015.1 |
| 20260502222204 | 16 | 269 | 8.0 | 11.3 | 0.00 | 0.00 | 0.00 | 80 | 1015.0 |
| 20260502221705 | 16 | 270 | 6.4 | 11.3 | 0.00 | 0.00 | 0.00 | 80 | 1015.1 |
| 20260502221205 | 16 | 261 | 8.0 | 11.3 | 0.00 | 0.00 | 0.00 | 80 | 1015.0 |
| 20260502220704 | 16 | 277 | 6.4 | 12.9 | 0.00 | 0.00 | 0.00 | 80 | 1015.0 |
| 20260502220205 | 16 | 267 | 6.4 | 12.9 | 0.00 | 0.00 | 0.00 | 80 | 1015.0 |
| 20260502215704 | 16 | 259 | 8.0 | 11.3 | 0.00 | 0.00 | 0.00 | 80 | 1015.1 |
| 20260502215205 | 16 | 281 | 6.4 | 11.3 | 0.00 | 0.00 | 0.00 | 81 | 1015.1 |
| 20260502214704 | 16 | 251 | 6.4 | 11.3 | 0.00 | 0.00 | 0.00 | 81 | 1014.9 |
| 20260502214205 | 16 | 273 | 6.4 | 11.3 | 0.00 | 0.00 | 0.00 | 82 | 1015.1 |
| 20260502213205 | 16 | 258 | 6.4 | 11.3 | 0.00 | 0.00 | 0.00 | 82 | 1015.1 |
| 20260502212729 | 16 | 248 | 6.4 | 11.3 | 0.00 | 0.00 | 0.00 | 82 | 1015.1 |
| 20260502212205 | 16 | 243 | 6.4 | 11.3 | 0.00 | 0.00 | 0.00 | 82 | 1015.0 |
| 20260502211705 | 16 | 269 | 6.4 | 11.3 | 0.00 | 0.00 | 0.00 | 82 | 1014.8 |
| 20260502211205 | 16 | 266 | 8.0 | 11.3 | 0.00 | 0.00 | 0.00 | 82 | 1014.8 |
| 20260502210704 | 16 | 263 | 8.0 | 11.3 | 0.00 | 0.00 | 0.00 | 82 | 1014.8 |
| 20260502210205 | 16 | 254 | 6.4 | 11.3 | 0.00 | 0.00 | 0.00 | 82 | 1014.9 |
| 20260502205704 | 16 | 261 | 6.4 | 9.7 | 0.00 | 0.00 | 0.00 | 82 | 1014.8 |
| 20260502205205 | 16 | 263 | 6.4 | 8.0 | 0.00 | 0.00 | 0.00 | 82 | 1014.7 |
| 20260502204205 | 16 | 258 | 4.8 | 8.0 | 0.00 | 0.00 | 0.00 | 82 | 1014.5 |
| 20260502203705 | 16 | 250 | 4.8 | 9.7 | 0.00 | 0.00 | 0.00 | 81 | 1014.6 |